Regional Weather Roundup
Issued by NWS Charleston, SC

Current Version | Previous Version | Graphics & Text | Print | Product List | Glossary On
Versions: 1 2 3 4 5 6 7 8 9 10 11 12 13 14 15 16 17 18 19 20 21 22 23 24 25 26 27 28 29 30 31 32 33 34 35 36 37 38 39 40 41 42 43 44 45 46 47 48 49 50
000 ASUS42 KCHS 310625 RWRCHS REGIONAL WEATHER ROUNDUP NATIONAL WEATHER SERVICE CHARLESTON SC 200 AM EDT THU JUL 31 2014 NOTE: "FAIR" INDICATES FEW OR NO CLOUDS BELOW 12,000 FEET WITH NO SIGNIFICANT WEATHER AND/OR OBSTRUCTIONS TO VISIBILITY. NOT ALL STATIONS ARE QUALITY CONTROLLED BY THE NATIONAL WEATHER SERVICE. USE DATA WITH CAUTION...ESPECIALLY DEWPOINT OBSERVATIONS. SCZ027-030-031-034>040-042>050-310700- ...SOUTH CAROLINA... CITY SKY/WX TMP DP RH WIND PRES REMARKS N CHARLESTON MOCLDY 77 71 82 NE3 30.02S 6HR MIN TEMP: 76; 6HR MAX TEMP: 83; WATERFRONT PRK N/A 82 N/A N/A E28 N/A FORT JOHNSON NOT AVBL MOUNT PLEASANT FAIR 79 72 78 CALM 30.01F HAZE JOHNS ISLAND MOCLDY 81 72 74 E6 30.01S PINOPOLIS N/A 79 72 78 E5 29.94F MONCKS CORNER N/A 75 72 88 CALM 30.03S SUMMERVILLE FAIR 72 72 100 CALM 30.03S BEAUFORT MCAS CLOUDY 83 74 74 S7 30.00S 6HR MIN TEMP: 80; 6HR MAX TEMP: 83; BEAUFORT ARPT RAIN 81 73 78 SE8 30.00R HILTON HEAD IS CLOUDY 82 73 74 E5 30.00S GEORGETOWN NOT AVBL WALTERBORO CLOUDY 73 N/A N/A NE5 30.02F ORANGEBURG MOCLDY 73 68 84 NE6 30.04S 6HR MIN TEMP: 73; 6HR MAX TEMP: 76; BARNWELL MOCLDY 73 70 88 E5 30.03F AIKEN FAIR 70 70 100 NE5 30.08S MANNING FAIR 72 N/A N/A CALM 30.04F KINGSTREE NOT AVBL COLUMBIA PTCLDY 75 66 73 CALM 30.04F 6HR MIN TEMP: 75; 6HR MAX TEMP: 79; SUMTER PTCLDY 70 68 96 NE6 30.03F 6HR MIN TEMP: 69; 6HR MAX TEMP: 77; FLORENCE MOCLDY 72 68 87 NE5 30.06F 6HR MIN TEMP: 72; 6HR MAX TEMP: 80; MYRTLE BEACH MOCLDY 81 68 65 E7 30.04S N MYRTLE BEACH MOCLDY 75 67 76 CALM 30.04S 6HR MIN TEMP: 73; 6HR MAX TEMP: 81; $$ GAZ063-065-086>088-099>101-113>116-118-119-134-136>141-150-310700- ...GEORGIA... CITY SKY/WX TMP DP RH WIND PRES REMARKS SAVANNAH ARPT PTCLDY 76 71 85 NE7 30.00S 6HR MIN TEMP: 76; 6HR MAX TEMP: 80; HUNTER AAF MOCLDY 76 71 87 N2 29.97F 6HR MIN TEMP: 76; 6HR MAX TEMP: 79; 6HR PCP: TRACE; FORT STEWART CLEAR 74 72 93 NE3 29.98F 6HR MIN TEMP: 74; 6HR MAX TEMP: 79; STATESBORO NOT AVBL SYLVANIA MOCLDY 73 73 98 CALM 30.02S CLAXTON FAIR 73 73 100 CALM 30.00S THOMSON MOCLDY 73 72 95 CALM 30.07F AUGUSTA-BUSH PTCLDY 71 67 87 CALM 30.02F 6HR MIN TEMP: 71; 6HR MAX TEMP: 81; AUGUSTA-DANIEL PTCLDY 76 67 73 NE6 30.04F SWAINSBORO MOCLDY 73 73 100 CALM 30.02S VIDALIA N/A 73 72 94 CALM 30.01S ALMA MOCLDY 74 71 91 CALM 29.98F 6HR MIN TEMP: 73; 6HR MAX TEMP: 87; WAYCROSS CLEAR 77 75 93 CALM 29.97F JESUP MOCLDY 77 73 88 CALM 29.98F BRUNSWICK MOCLDY 77 73 88 CALM 29.97F SAINT SIMONS MOCLDY 82 73 74 E13 29.96F 6HR MIN TEMP: 81; 6HR MAX TEMP: 82; $$ SCZ027-028-034-036>038-045-046-048>050-GAZ119-141-310700- ...LAKE AND SUPPLEMENTAL COASTAL OBSERVATIONS... STATION/POSITION TIME TEMP WIND PRES WAVE SWELL AIR SEA DIR/SP/G HT/PER HT/PER/DIR (UTC) (F) (DEG/KT/KT) (MB) (FT/S) (FT/S/D) UPR LAKE MARION NOT AVBL WINYAH BAY 0600 80 100/ 8 1017.0S LAKE MURRAY 0600 73 10/ 1/ 3 1017.3S ACE BASIN NERRS 0600 80 70/ 2 1016.0S FORT PULASKI 0600 82 120/ 6/ 10 1015.6F SAPELO ISLAND 0600 81 110/ 4 1015.0S $$ ANZ835-935-AMZ111-154-330-350-352-354-374-450-454-472-310700- ...C-MAN AND BUOY OBSERVATIONS... STATION/POSITION TIME TEMP WIND PRES WAVE SWELL AIR SEA DIR/SP/G HT/PER HT/PER/DIR (UTC) (F) (DEG/KT/KT) (MB) (FT/S) (FT/S/D) FOLLY BEACH CMAN 0600 82 100/ 14/ 16 1016.5F BUOY 41004 0600 82 83 90/ 14/ 16 1015.5F 4/ 6 2/ 8 BUOY 41008 0600 83 85 120/ 14/ 16 1014.5F 3/ 5 5E ST. MARYS GA 0600 86 N/A 3/ 5 FRYING PAN BUOY NOT AVBL BUOY 41025 0600 VRB 8/ 10 1018.2F 4/ 7 3/100/ 7 CAPE LOOKOUT NC 0600 79 90/ 11/ 12 1017.9F BUOY 41002 0505 79 80 30/ 4/ 4 1016.9 4/ 6 3/160/ 6 BUOY 41010 0600 83 85 190/ 8/ 10 1015.6F 2/ 8 2/100/ 8 BUOY 41012 NOT AVBL ST AUGUSTINE FL 0600 78 210/ 6/ 7 1015.3F CAPERS NEARSHORE 0500 82 120/ 12/ 16 N/A FRIPP NEARSHORE NOT AVBL $$

USA.gov is the U.S. government's official web portal to all federal, state and local government web resources and services.